This is the latest recevied weather packets stored in our database for station/object K7NDG. If no packets are shown the sender has not sent any weather packets the latest 1 day(s).
| Time | Temp. | Humidity | Pressure | Rain* | Wind** | Luminosity | Snow |
|---|---|---|---|---|---|---|---|
| 1778040704 | 13.33° C | 77% | 1017.6 hPa | 0 mm | 0.89 m/s, 272° | 0 W/m² | - |
| 1778040402 | 13.33° C | 77% | 1017.3 hPa | 0 mm | 0 m/s | 0 W/m² | - |
| 1778040098 | 13.33° C | 77% | 1017.3 hPa | 0 mm | 0 m/s | 0 W/m² | - |
| 1778039795 | 13.33° C | 77% | 1017.2 hPa | 0 mm | 0.45 m/s, 282° | 0 W/m² | - |
| 1778039492 | 13.33° C | 77% | 1017.5 hPa | 0 mm | 0 m/s | 0 W/m² | - |
| 1778039189 | 13.33° C | 77% | 1017.2 hPa | 0 mm | 0 m/s | 0 W/m² | - |
| 1778038886 | 13.33° C | 77% | 1017.1 hPa | 0 mm | 0.89 m/s, 272° | 0 W/m² | - |
| 1778038583 | 13.33° C | 76% | 1017.3 hPa | 0 mm | 0.45 m/s, 276° | 0 W/m² | - |
| 1778038280 | 13.33° C | 76% | 1017.1 hPa | 0 mm | 0 m/s | 0 W/m² | - |
| 1778037977 | 13.89° C | 76% | 1016.7 hPa | 0 mm | 0.89 m/s, 262° | 0 W/m² | - |
| 1778037674 | 13.89° C | 76% | 1017 hPa | 0 mm | 0 m/s | 0 W/m² | - |
| 1778037371 | 13.89° C | 76% | 1017 hPa | 0 mm | 0 m/s | 4 W/m² | - |
| 1778037068 | 13.89° C | 76% | 1017 hPa | 0 mm | 0 m/s | 5 W/m² | - |
| 1778036767 | 13.89° C | 76% | 1016.9 hPa | 0 mm | 1.34 m/s, 289° | 7 W/m² | - |
| 1778036463 | 13.89° C | 75% | 1016.8 hPa | 0 mm | 0 m/s | 10 W/m² | - |
| 1778036160 | 13.89° C | 75% | 1016.9 hPa | 0 mm | 0.89 m/s, 282° | 16 W/m² | - |
| 1778035856 | 14.44° C | 75% | 1016.9 hPa | 0 mm | 0.89 m/s, 287° | 18 W/m² | - |
| 1778035554 | 14.44° C | 75% | 1016.8 hPa | 0 mm | 0.89 m/s, 274° | 22 W/m² | - |
| 1778035250 | 14.44° C | 75% | 1016.7 hPa | 0 mm | 0.45 m/s, 274° | 26 W/m² | - |
| 1778034946 | 14.44° C | 74% | 1016.6 hPa | 0 mm | 0 m/s | 29 W/m² | - |
| 1778034643 | 14.44° C | 75% | 1016.7 hPa | 0 mm | 0 m/s | 33 W/m² | - |
| 1778034340 | 14.44° C | 75% | 1016.6 hPa | 0 mm | 0 m/s | 33 W/m² | - |
| 1778034033 | 14.44° C | 75% | 1016.8 hPa | 0 mm | 0 m/s | 39 W/m² | - |
| 1778033730 | 14.44° C | 74% | 1017 hPa | 0 mm | 0 m/s | 44 W/m² | - |
| 1778033427 | 14.44° C | 74% | 1016.6 hPa | 0 mm | 0.89 m/s, 252° | 48 W/m² | - |
* Rain latest hour (hover to see other rain measurements)
** Current wind speed in m/s (hover to see current wind gust speed)